| time (UTC) | temp F | wind direction | speed MPH | gust MPH | rain 1hr in | rain 24hr in | rain mn in | humidity % | barometer mb |
| 20260509054553 | 53 | 0 | 0.0 | 0.0 | 0.00 | 0.00 | 0.00 | 88 | 1014.1 |
| 20260509053050 | 53 | 0 | 0.0 | 0.0 | 0.00 | 0.00 | 0.00 | 87 | 1014.4 |
| 20260509051603 | 54 | 0 | 0.0 | 0.0 | 0.00 | 0.00 | 0.00 | 86 | 1014.4 |
| 20260509050059 | 54 | 0 | 0.0 | 0.0 | 0.00 | 0.00 | 0.00 | 87 | 1014.5 |
| 20260509044542 | 54 | 0 | 0.0 | 0.0 | 0.00 | 0.00 | 0.00 | 86 | 1014.7 |
| 20260509043047 | 55 | 0 | 0.0 | 0.0 | 0.00 | 0.00 | 0.00 | 85 | 1014.9 |
| 20260509041551 | 55 | 0 | 0.0 | 0.0 | 0.00 | 0.00 | 0.00 | 85 | 1014.9 |
| 20260509040041 | 55 | 0 | 0.0 | 0.0 | 0.00 | 0.00 | 0.00 | 84 | 1014.7 |
| 20260509034558 | 56 | 0 | 0.0 | 0.0 | 0.00 | 0.00 | 0.00 | 83 | 1014.7 |
| 20260509033058 | 56 | 0 | 0.0 | 0.0 | 0.00 | 0.00 | 0.00 | 84 | 1014.7 |
| 20260509031545 | 56 | 0 | 0.0 | 0.0 | 0.00 | 0.00 | 0.00 | 83 | 1014.8 |
| 20260509030049 | 56 | 0 | 0.0 | 0.0 | 0.00 | 0.00 | 0.00 | 83 | 1014.8 |
| 20260509024557 | 57 | 0 | 0.0 | 0.0 | 0.00 | 0.00 | 0.00 | 81 | 1014.9 |
| 20260509023047 | 57 | 0 | 0.0 | 0.0 | 0.00 | 0.00 | 0.00 | 81 | 1015.3 |
| 20260509021548 | 57 | 0 | 0.0 | 0.0 | 0.00 | 0.00 | 0.00 | 80 | 1015.2 |
| 20260509020049 | 58 | 0 | 0.0 | 0.0 | 0.00 | 0.00 | 0.00 | 78 | 1015.0 |
| 20260509014550 | 58 | 0 | 0.0 | 0.0 | 0.00 | 0.00 | 0.00 | 76 | 1015.0 |
| 20260509013050 | 59 | 0 | 0.0 | 0.0 | 0.00 | 0.00 | 0.00 | 75 | 1014.9 |
| 20260509011601 | 59 | 0 | 0.0 | 0.0 | 0.00 | 0.00 | 0.00 | 71 | 1014.5 |
| 20260509010046 | 60 | 0 | 0.0 | 0.0 | 0.00 | 0.00 | 0.00 | 71 | 1014.5 |
| 20260509004555 | 61 | 0 | 0.0 | 0.0 | 0.00 | 0.00 | 0.00 | 68 | 1014.4 |
| 20260509003046 | 62 | 0 | 0.0 | 0.0 | 0.00 | 0.00 | 0.00 | 62 | 1014.4 |
| 20260509001553 | 63 | 0 | 0.0 | 0.0 | 0.00 | 0.00 | 0.00 | 62 | 1014.2 |
| 20260509000050 | 64 | 0 | 0.0 | 0.0 | 0.00 | 0.00 | 0.00 | 56 | 1014.0 |
| 20260508234547 | 66 | 0 | 0.0 | 0.0 | 0.00 | 0.00 | 0.00 | 56 | 1014.0 |
| 20260508233049 | 67 | 0 | 0.0 | 1.0 | 0.00 | 0.00 | 0.00 | 50 | 1014.1 |
| 20260508231553 | 68 | 0 | 0.0 | 1.0 | 0.00 | 0.00 | 0.00 | 47 | 1013.9 |
| 20260508230043 | 68 | 250 | 0.0 | 1.0 | 0.00 | 0.00 | 0.00 | 46 | 1014.1 |
| 20260508224601 | 69 | 137 | 1.0 | 3.0 | 0.00 | 0.00 | 0.00 | 44 | 1014.0 |
| 20260508223048 | 70 | 253 | 0.0 | 2.0 | 0.00 | 0.00 | 0.00 | 40 | 1014.1 |
| 20260508221556 | 71 | 0 | 0.0 | 3.0 | 0.00 | 0.00 | 0.00 | 39 | 1014.1 |
| 20260508220049 | 73 | 0 | 0.0 | 2.0 | 0.00 | 0.00 | 0.00 | 37 | 1013.9 |
| 20260508214549 | 72 | 0 | 1.0 | 3.0 | 0.00 | 0.00 | 0.00 | 37 | 1013.8 |
| 20260508213049 | 71 | 0 | 1.0 | 2.0 | 0.00 | 0.00 | 0.00 | 39 | 1013.8 |
| 20260508211553 | 71 | 0 | 0.0 | 2.0 | 0.00 | 0.00 | 0.00 | 39 | 1014.1 |
| 20260508210049 | 71 | 203 | 1.0 | 4.0 | 0.00 | 0.00 | 0.00 | 37 | 1014.3 |
| 20260508204547 | 71 | 200 | 0.0 | 3.0 | 0.00 | 0.00 | 0.00 | 34 | 1014.2 |
| 20260508203048 | 72 | 215 | 0.0 | 6.0 | 0.00 | 0.00 | 0.00 | 35 | 1014.3 |
| 20260508201544 | 71 | 265 | 2.0 | 5.0 | 0.00 | 0.00 | 0.00 | 32 | 1014.5 |
| 20260508200105 | 71 | 60 | 2.0 | 7.0 | 0.00 | 0.00 | 0.00 | 35 | 1014.6 |
| 20260508194548 | 71 | 230 | 3.0 | 8.0 | 0.00 | 0.00 | 0.00 | 32 | 1015.1 |
| 20260508193058 | 72 | 232 | 1.0 | 4.0 | 0.00 | 0.00 | 0.00 | 33 | 1015.3 |
| 20260508191547 | 72 | 267 | 2.0 | 8.0 | 0.00 | 0.00 | 0.00 | 33 | 1015.4 |
| 20260508190043 | 71 | 0 | 3.0 | 6.0 | 0.00 | 0.00 | 0.00 | 32 | 1015.5 |
| 20260508184549 | 71 | 204 | 2.0 | 5.0 | 0.00 | 0.00 | 0.00 | 33 | 1016.0 |
| 20260508183106 | 70 | 0 | 0.0 | 7.0 | 0.00 | 0.00 | 0.00 | 33 | 1016.0 |
| 20260508181608 | 71 | 36 | 2.0 | 5.0 | 0.00 | 0.00 | 0.00 | 32 | 1016.1 |
| 20260508180049 | 70 | 94 | 2.0 | 6.0 | 0.00 | 0.00 | 0.00 | 36 | 1016.3 |
| 20260508174547 | 70 | 254 | 1.0 | 4.0 | 0.00 | 0.00 | 0.00 | 31 | 1016.6 |
| 20260508173047 | 71 | 322 | 0.0 | 2.0 | 0.00 | 0.00 | 0.00 | 38 | 1016.6 |
| 20260508171549 | 69 | 0 | 1.0 | 3.0 | 0.00 | 0.00 | 0.00 | 33 | 1017.0 |
| 20260508170043 | 68 | 209 | 2.0 | 6.0 | 0.00 | 0.00 | 0.00 | 35 | 1017.3 |
| 20260508164541 | 69 | 0 | 0.0 | 2.0 | 0.00 | 0.00 | 0.00 | 37 | 1017.5 |
| 20260508163048 | 69 | 351 | 1.0 | 5.0 | 0.00 | 0.00 | 0.00 | 36 | 1017.6 |
| 20260508161544 | 68 | 0 | 0.0 | 5.0 | 0.00 | 0.00 | 0.00 | 40 | 1017.8 |
| 20260508160054 | 68 | 234 | 0.0 | 5.0 | 0.00 | 0.00 | 0.00 | 34 | 1018.1 |
| 20260508154542 | 68 | 87 | 0.0 | 4.0 | 0.00 | 0.00 | 0.00 | 39 | 1018.1 |
| 20260508153051 | 66 | 225 | 0.0 | 2.0 | 0.00 | 0.00 | 0.00 | 40 | 1018.1 |
| 20260508151550 | 65 | 226 | 1.0 | 3.0 | 0.00 | 0.00 | 0.00 | 46 | 1018.2 |
| 20260508150049 | 65 | 352 | 1.0 | 4.0 | 0.00 | 0.00 | 0.00 | 51 | 1018.4 |
| 20260508144553 | 64 | 22 | 0.0 | 3.0 | 0.00 | 0.00 | 0.00 | 49 | 1018.6 |
| 20260508143052 | 64 | 78 | 0.0 | 3.0 | 0.00 | 0.00 | 0.00 | 50 | 1018.6 |
| 20260508141559 | 62 | 0 | 2.0 | 5.0 | 0.00 | 0.00 | 0.00 | 52 | 1018.3 |
| 20260508140059 | 62 | 335 | 1.0 | 4.0 | 0.00 | 0.00 | 0.00 | 52 | 1018.2 |
| 20260508134548 | 62 | 0 | 0.0 | 1.0 | 0.00 | 0.00 | 0.00 | 59 | 1018.5 |
| 20260508133045 | 60 | 0 | 0.0 | 4.0 | 0.00 | 0.00 | 0.00 | 63 | 1018.3 |
| 20260508131545 | 59 | 19 | 0.0 | 3.0 | 0.00 | 0.00 | 0.00 | 66 | 1018.1 |
| 20260508130047 | 56 | 0 | 1.0 | 2.0 | 0.00 | 0.00 | 0.00 | 75 | 1018.1 |
| 20260508124548 | 52 | 0 | 0.0 | 0.0 | 0.00 | 0.00 | 0.00 | 93 | 1017.8 |
| 20260508123047 | 49 | 0 | 0.0 | 2.0 | 0.00 | 0.00 | 0.00 | 96 | 1017.8 |
| 20260508121548 | 49 | 0 | 0.0 | 0.0 | 0.00 | 0.00 | 0.00 | 96 | 1017.7 |
| 20260508120053 | 48 | 0 | 0.0 | 0.0 | 0.00 | 0.00 | 0.00 | 96 | 1017.6 |
| 20260508114541 | 47 | 0 | 0.0 | 0.0 | 0.00 | 0.00 | 0.00 | 96 | 1017.3 |
| 20260508113121 | 47 | 0 | 0.0 | 0.0 | 0.00 | 0.00 | 0.00 | 96 | 1017.0 |
| 20260508111550 | 46 | 0 | 0.0 | 0.0 | 0.00 | 0.00 | 0.00 | 95 | 1016.8 |
| 20260508110049 | 46 | 0 | 0.0 | 0.0 | 0.00 | 0.00 | 0.00 | 95 | 1016.7 |
| 20260508104553 | 46 | 0 | 0.0 | 0.0 | 0.00 | 0.00 | 0.00 | 95 | 1016.3 |
| 20260508103057 | 46 | 0 | 0.0 | 0.0 | 0.00 | 0.00 | 0.00 | 95 | 1016.0 |
| 20260508101551 | 46 | 0 | 0.0 | 0.0 | 0.00 | 0.00 | 0.00 | 95 | 1015.8 |
| 20260508100047 | 47 | 0 | 0.0 | 0.0 | 0.00 | 0.00 | 0.00 | 95 | 1015.7 |
| 20260508094549 | 47 | 0 | 0.0 | 0.0 | 0.00 | 0.00 | 0.00 | 95 | 1015.5 |
| 20260508093046 | 48 | 0 | 0.0 | 0.0 | 0.00 | 0.00 | 0.00 | 95 | 1015.5 |
| 20260508091546 | 48 | 0 | 0.0 | 0.0 | 0.00 | 0.00 | 0.00 | 95 | 1015.3 |
| 20260508090051 | 49 | 0 | 0.0 | 0.0 | 0.00 | 0.00 | 0.00 | 94 | 1015.3 |
| 20260508084547 | 49 | 0 | 0.0 | 0.0 | 0.00 | 0.00 | 0.00 | 94 | 1015.1 |
| 20260508083048 | 50 | 0 | 0.0 | 0.0 | 0.00 | 0.00 | 0.00 | 94 | 1015.2 |
| 20260508081548 | 50 | 0 | 0.0 | 1.0 | 0.00 | 0.00 | 0.00 | 94 | 1015.1 |
| 20260508080049 | 51 | 0 | 0.0 | 0.0 | 0.00 | 0.00 | 0.00 | 94 | 1014.9 |
| 20260508074544 | 51 | 0 | 0.0 | 1.0 | 0.00 | 0.00 | 0.00 | 95 | 1014.8 |
| 20260508073048 | 51 | 0 | 0.0 | 0.0 | 0.00 | 0.00 | 0.00 | 95 | 1014.7 |
| 20260508071542 | 51 | 0 | 0.0 | 0.0 | 0.00 | 0.00 | 0.00 | 95 | 1014.7 |
| 20260508070041 | 51 | 0 | 0.0 | 0.0 | 0.00 | 0.00 | 0.00 | 94 | 1014.6 |
| 20260508064603 | 51 | 0 | 0.0 | 0.0 | 0.00 | 0.00 | 0.00 | 94 | 1014.5 |
| 20260508063048 | 51 | 0 | 0.0 | 0.0 | 0.00 | 0.00 | 0.00 | 94 | 1014.5 |
| 20260508061550 | 52 | 0 | 0.0 | 0.0 | 0.00 | 0.00 | 0.00 | 94 | 1014.5 |
| 20260508060049 | 52 | 0 | 0.0 | 0.0 | 0.00 | 0.00 | 0.00 | 94 | 1014.6 |